Location: York
(31.8935°S, 116.7682°E)
Time: 17:24:28
(UTC+08:00)

Oscar 11 - Pass Details

Date: 09 December 2022
Orbit: 611 x 621 km, 97.6° (Epoch: 27 January)

Event Time Altitude Azimuth Distance (km) Brightness Sun altitude
Rises 03:22:36 0° 40° (NE) 2,878 10.5 -17.7°
Reaches altitude 10° 03:25:04 10° 53° (NE) 1,984 9.8 -17.4°
Maximum altitude 03:28:36 25° 109° (ESE) 1,261 9.4 -16.8°
Drops below altitude 10° 03:32:11 10° 164° (SSE) 2,011 10.6 -16.2°
Sets 03:34:41 0° 176° (S) 2,928 11.2 -15.8°
